This demonstration page uses our WeatherBlox Daily Observations layout. Learn more.

Hourly Observations for December 1, 2019

Temp ( °F °C ) Dew Point ( °F °C ) Humidity (%) Winds ( mph kmh ) Pressure ( in mb ) Visibility ( mi km ) Precip ( " mm )
12:15 am 00:15 Cloudy 30 -1 24 -4.5 77 77 NW 30 48 29.85 1011 10 16.0934 0 0
12:35 am 00:35 Cloudy 30 -1 24 -4.4 78 78 NW 26 43 29.88 1012 10 16.0934 0 0
12:55 am 00:55 Cloudy 30 -1 24 -4.6 77 77 NW 29 46 29.88 1012 10 16.0934 0 0
1:15 am 01:15 Cloudy 30 -1.1 24 -4.6 77 77 NW 35 56 29.88 1012 10 16.0934 0 0
1:35 am 01:35 Cloudy 30 -1.3 24 -4.6 79 79 NNW 30 48 29.88 1012 10 16.0934 0 0
1:55 am 01:55 Cloudy 30 -1.3 23 -4.8 77 77 NW 29 46 29.88 1012 10 16.0934 0 0
2:15 am 02:15 Cloudy 29 -1.5 23 -5 77 77 NW 28 44 29.88 1012 10 16.0934 0 0
2:35 am 02:35 Cloudy 29 -1.5 23 -4.8 78 78 NW 29 46 29.88 1012 10 16.0934 0 0
2:55 am 02:55 Cloudy 29 -1.6 22 -5.4 76 76 NW 31 50 29.88 1012 10 16.0934 0 0
3:15 am 03:15 Partly Cloudy 28 -2 22 -5.5 77 77 NW 25 41 29.91 1013 10 16.0934 0 0
3:35 am 03:35 Mostly Cloudy 29 -1.8 23 -5 79 79 NW 25 41 29.91 1013 10 16.0934 0 0
3:55 am 03:55 Cloudy 29 -1.5 23 -4.8 78 78 NW 28 44 29.91 1013 10 16.0934 0 0
4:15 am 04:15 Cloudy 29 -1.5 23 -5 77 77 NNW 26 43 29.91 1013 10 16.0934 0 0
4:35 am 04:35 Cloudy 29 -1.5 24 -4.6 80 80 NW 25 41 29.94 1014 10 16.0934 0 0
4:55 am 04:55 Cloudy 29 -1.5 24 -4.6 80 80 NW 33 54 29.94 1014 10 16.0934 0 0
5:15 am 05:15 Cloudy 29 -1.5 24 -4.5 80 80 NW 29 46 29.94 1014 10 16.0934 0 0
5:35 am 05:35 Cloudy 29 -1.5 24 -4.5 80 80 NW 28 44 29.94 1014 10 16.0934 0 0
5:55 am 05:55 Windy with Snow Likely 29 -1.5 24 -4.3 81 81 NNW 26 43 29.97 1015 10 16.0934 0 0
6:15 am 06:15 Cloudy 29 -1.5 24 -4.3 81 81 NNW 25 41 29.97 1015 10 16.0934 0 0
6:35 am 06:35 Cloudy 29 -1.5 24 -4.2 82 82 NW 24 39 29.97 1015 10 16.0934 0 0
6:55 am 06:55 Cloudy 29 -1.5 25 -4.1 83 83 NNW 23 37 30.03 1017 10 16.0934 0 0
7:15 am 07:15 Cloudy 29 -1.5 24 -4.3 81 81 NNW 22 35 30.03 1017 10 16.0934 0 0
7:35 am 07:35 Cloudy 29 -1.5 25 -4.1 83 83 NNW 24 39 30.06 1018 10 16.0934 0 0
7:55 am 07:55 Cloudy 29 -1.5 25 -4.1 83 83 NNW 20 31 30.06 1018 10 16.0934 0 0
8:15 am 08:15 Cloudy 29 -1.5 25 -4 83 83 NNW 21 33 30.09 1019 10 16.0934 0 0
8:35 am 08:35 Cloudy 29 -1.4 25 -4.1 82 82 NW 25 41 30.09 1019 10 16.0934 0 0
8:55 am 08:55 Cloudy 30 -1.3 25 -4 82 82 NW 20 31 30.09 1019 10 16.0934 0 0
9:15 am 09:15 Cloudy 30 -1.1 25 -4 81 81 NW 21 33 30.12 1020 10 16.0934 0 0
9:35 am 09:35 Cloudy 30 -1 25 -3.8 82 82 NW 20 31 30.12 1020 10 16.0934 0 0
9:55 am 09:55 Cloudy 31 -0.8 25 -3.7 81 81 NW 24 39 30.15 1021 10 16.0934 0 0
10:15 am 10:15 Cloudy 31 -0.7 25 -3.7 80 80 NW 24 39 30.15 1021 10 16.0934 0 0
10:35 am 10:35 Cloudy 31 -0.7 26 -3.5 82 82 NNW 22 35 30.15 1021 10 16.0934 0 0
10:55 am 10:55 Cloudy 31 -0.6 26 -3.5 81 81 NNW 20 31 30.18 1022 10 16.0934 0 0
11:15 am 11:15 Cloudy 31 -0.5 26 -3.5 80 80 NNW 20 31 30.18 1022 10 16.0934 0 0
11:35 am 11:35 Cloudy 32 -0.2 26 -3.6 78 78 NNW 21 33 30.18 1022 10 16.0934 0 0
11:55 am 11:55 Cloudy 32 0.1 26 -3.5 77 77 NW 18 30 30.12 1020 10 16.0934 0 0
12:15 pm 12:15 Mostly Cloudy 33 0.3 26 -3.5 76 76 NNW 17 28 30.12 1020 10 16.0934 0 0
12:35 pm 12:35 Partly Cloudy 33 0.5 26 -3.5 75 75 NNW 20 31 30.15 1021 10 16.0934 0 0
12:55 pm 12:55 Partly Cloudy 33 0.6 26 -3.4 75 75 NNW 20 31 30.15 1021 10 16.0934 0 0
1:15 pm 13:15 Mostly Cloudy 33 0.6 26 -3.5 74 74 NW 20 31 30.15 1021 10 16.0934 0 0
1:35 pm 13:35 Partly Cloudy 33 0.6 26 -3.5 74 74 NW 23 37 30.15 1021 10 16.0934 0 0
1:55 pm 13:55 Sunny 33 0.8 26 -3.4 74 74 NW 22 35 30.15 1021 10 16.0934 0 0
2:15 pm 14:15 Sunny 33 0.8 26 -3.4 74 74 NW 22 35 30.15 1021 10 16.0934 0 0
2:35 pm 14:35 Sunny 34 0.9 26 -3.5 73 73 NW 22 35 30.15 1021 10 16.0934 0 0
2:55 pm 14:55 Sunny 33 0.8 26 -3.5 73 73 NNW 18 30 30.15 1021 10 16.0934 0 0
3:15 pm 15:15 Sunny 33 0.8 25 -3.7 72 72 NNW 17 28 30.18 1022 10 16.0934 0 0
3:35 pm 15:35 Sunny 33 0.8 26 -3.5 73 73 NNW 15 24 30.18 1022 10 16.0934 0 0
3:55 pm 15:55 Sunny 33 0.8 26 -3.5 73 73 NNW 18 30 30.21 1023 10 16.0934 0 0
4:15 pm 16:15 Sunny 33 0.6 25 -4 72 72 NW 20 31 30.24 1024 10 16.0934 0 0
4:35 pm 16:35 Sunny 33 0.4 25 -4 73 73 NW 16 26 30.24 1024 10 16.0934 0 0
4:55 pm 16:55 Sunny 32 0 25 -3.8 76 76 NNW 12 19 30.24 1024 10 16.0934 0 0
5:15 pm 17:15 Clear 32 -0.2 25 -3.7 78 78 NNW 9 15 30.24 1024 10 16.0934 0 0
5:35 pm 17:35 Clear 31 -0.5 25 -3.7 79 79 N 13 20 30.24 1024 10 16.0934 0 0
5:55 pm 17:55 Clear 31 -0.7 25 -3.7 80 80 NNW 9 15 30.24 1024 10 16.0934 0 0
6:15 pm 18:15 Clear 30 -1.1 25 -4 81 81 NNW 8 13 30.24 1024 10 16.0934 0 0
6:35 pm 18:35 Clear 29 -1.5 24 -4.2 82 82 NNW 8 13 30.27 1025 10 16.0934 0 0
6:55 pm 18:55 Clear 28 -2 24 -4.3 84 84 NW 6 9 30.27 1025 10 16.0934 0 0
7:15 pm 19:15 Clear 27 -2.9 24 -4.7 88 88 NW 3 6 30.3 1026 10 16.0934 0 0
7:35 pm 19:35 Clear 27 -2.9 24 -4.6 88 88 NW 3 6 30.3 1026 10 16.0934 0 0
7:55 pm 19:55 Clear 27 -3 24 -4.6 89 89 NW 6 9 30.33 1027 10 16.0934 0 0
8:15 pm 20:15 Clear 25 -3.7 23 -5.1 90 90 WNW 6 9 30.33 1027 10 16.0934 0 0
8:35 pm 20:35 Clear 27 -3 24 -4.5 90 90 NW 5 7 30.33 1027 10 16.0934 0 0
8:55 pm 20:55 Clear 26 -3.5 23 -4.8 91 91 WNW 7 11 30.33 1027 10 16.0934 0 0
9:15 pm 21:15 Clear 25 -3.8 22 -5.3 89 89 WNW 6 9 30.33 1027 10 16.0934 0 0
9:35 pm 21:35 Clear 25 -4 23 -5 93 93 WNW 6 9 30.33 1027 10 16.0934 0 0
9:55 pm 21:55 Clear 24 -4.5 22 -5.8 91 91 WNW 6 9 30.33 1027 10 16.0934 0 0
10:15 pm 22:15 Clear 22 -5.6 20 -6.6 93 93 WNW 6 9 30.33 1027 10 16.0934 0 0
10:35 pm 22:35 Clear 23 -4.8 22 -5.4 96 96 NW 7 11 30.3 1026 10 16.0934 0 0
10:55 pm 22:55 Clear 24 -4.6 22 -5.7 92 92 NW 6 9 30.33 1027 10 16.0934 0 0
11:15 pm 23:15 Clear 24 -4.6 22 -5.5 94 94 NNW 7 11 30.3 1026 10 16.0934 0 0
11:35 pm 23:35 Clear 24 -4.7 22 -5.7 93 93 NNW 6 9 30.33 1027 10 16.0934 0 0
11:55 pm 23:55 Clear 22 -5.6 20 -6.8 91 91 W 3 6 30.36 1028 10 16.0934 0 0

Powered by AerisWeather